Weather in Dzhangar

Russia / Republic of Kalmykia     47°39′22″N   45°45′22″E
temp.,
°C
wind,
m/s
gust,
m/s
humid.,
%
clouds,
%
prec.,
mm/h
press.,
hPa
HPBL,
m
15 may, sat
sat1500:00+20se5132994 0.0 1016240
03:00+19se512345 0.0 1015168
06:00+20se514403 0.0 1016274
09:00+28se814210 0.0 1016947
12:00+33sse10121273 0.0 10152450
15:00+33sse910128 0.0 10142668
18:00+29se914190 0.0 1014485
21:00+24sse614260 0.0 1015245
16 may, sun
sun1600:00+21se511355 0.0 1015174
03:00+19se474641 0.0 101595
06:00+20ese474529 0.0 1015156
09:00+28se69255 0.0 1015670
12:00+33se91116100 0.0 10133255
15:00+33se9101692 0.0 10123460
18:00+29ese71124100 0.0 1012341
21:00+24ese51431100 0.0 1013291
17 may, mon
mon1700:00+21ese514335 0.0 1012250
03:00+19ese513315 0.0 1011221
06:00+21ese615405 0.0 1012294
09:00+29se10142181 0.0 10121463
12:00+32se1112145 0.0 10112961
15:00+33se1011125 0.0 10103261
18:00+30se711185 0.0 1010374
21:00+23ese5102499 0.0 1012145
18 may, tue
tue1800:00+22e5122487 0.0 1010178
03:00+20e5132726 0.0 1009197
06:00+21ese6163463 0.0 1009399
09:00+29sse9112114 0.0 10091112
12:00+33se91215100 0.0 10092301
15:00+32sse111613100 0.0 10092789
18:00+29se71218100 0.0 1009403
21:00+24s472749 0.0 1010118
19 may, wed
wed1900:00+19nw3567100 0.0 101090
03:00+19nnw236696 0.0 101033
06:00+20wnw6971100 0.1 1012356
09:00+24nw665298 0.1 1012907
12:00+27nw664022 0.0 10131568
15:00+28nw43361 0.0 10122077
18:00+27wnw43381 0.0 10121751
21:00+23nw3348100 0.0 101338